User: anonymous   Login
Location: Unspecified
(0.0000°N, 0.0000°E)
Time: 22:06:59
(UTC+00:00)
Language:

COMSATBw-2 - Orbit

View from above orbital plane
View from above orbital plane
View from above satellite
View from above satellite

Ground track
Ground track

The orbit data is extracted from the following two-line orbital elements,

1 36582U 10021B   24205.27688507  .00000088  00000-0  00000-0 0  9990
2 36582   0.0372 124.8439 0002320   2.6345 286.8951  1.00269108 51996
Epoch (UTC): 23 July 2024 06:38:42
Eccentricity: 0.0002320
inclination: 0.0372°
perigee height: 35777 km
apogee height: 35797 km
right ascension of ascending node: 124.8439°
argument of perigee: 2.6345°
revolutions per day: 1.00269108
mean anomaly at epoch: 286.8951°
orbit number at epoch: 5199

The dashed part of the orbit path shows where the satellite is in the earth's shadow,  

DLR